Home   Weather   Montreux   Past weeks
Flag for Switzerland

Past Weather in Montreux, Vaud, Switzerland — Yesterday and Last 2 Weeks

Now
50 °F

Cool.


Feels Like: 50 °F
Forecast: 46 / 34 °F
Wind: 1 mph from West

Location: Aigle

Current Time: Feb 21, 2019 at 1:06:47 pm

Latest Report: Feb 21, 2019 at 12:00 pm


Visibility: N/A

Pressure: 30.42 "Hg

Humidity: 57%

Dew Point: 35 °F

Location of MontreuxLocation

Past Weather in Montreux — Graph

°F

Montreux Temperature Yesterday

Maximum temperature yesterday: 51 °F (at 4:00 pm)
Minimum temperature yesterday: 33 °F (at 8:00 am)
Average temperature yesterday: 40 °F

High & Low Weather Summary for the Past Weeks

 TemperatureHumidityPressure
High56 °F (Feb 10, 2:00 pm)99% (Feb 15, 3:00 am)30.71 "Hg (Feb 15, 3:00 am)
Low28 °F (Feb 14, 8:00 am)38% (Feb 10, 12:00 pm)29.69 "Hg (Feb 10, 3:00 pm)
Average38 °F76%30.33 "Hg
* Reported Feb 6 11:00 am — Feb 21 11:00 am, Montreux. Weather by CustomWeather, © 2019

Note: Actual official high and low records may vary slightly from our data, if they occured in-between our weather recording intervals... More about our weather records

Advertising

Montreux Weather History for the Previous 24 Hours

Scroll right to see more
 ConditionsComfort  
Time TempWeatherWind HumidityBarometerVisibility
11:00 am
Thu, Feb 21
46 °FCool.7 mph66%30.45 "HgN/A
10:00 am45 °FQuite cool.2 mph60%30.44 "HgN/A
9:00 am41 °FQuite cool.2 mph66%30.44 "HgN/A
8:00 am37 °FChilly.7 mph69%30.44 "HgN/A
7:00 am37 °FClear.7 mph70%30.43 "Hg25 mi
6:00 am36 °FChilly.3 mph74%30.43 "HgN/A
5:00 am36 °FChilly.1 mph71%30.42 "HgN/A
4:00 am38 °FPassing clouds.2 mph68%30.41 "Hg12 mi
3:00 am38 °FChilly.5 mph68%30.40 "HgN/A
2:00 am35 °FChilly.2 mph81%30.41 "HgN/A
1:00 am32 °FChilly.1 mph89%30.41 "HgN/A
12:00 am35 °FChilly.3 mph83%30.39 "HgN/A
11:00 pm
Wed, Feb 20
35 °FChilly.No wind82%30.38 "HgN/A
10:00 pm36 °FChilly.No wind86%30.37 "HgN/A
9:00 pm37 °FChilly.2 mph84%30.35 "HgN/A
8:00 pm39 °FChilly.2 mph78%30.34 "HgN/A
7:00 pm41 °FOvercast.1 mph80%30.32 "Hg14 mi
6:00 pm45 °FQuite cool.1 mph72%30.29 "HgN/A
5:00 pm48 °FCool.3 mph58%30.28 "HgN/A
4:00 pm51 °FPartly sunny.3 mph50%30.26 "Hg17 mi
3:00 pm51 °FCool.8 mph48%30.27 "HgN/A
1:00 pm49 °FPassing clouds.7 mph53%30.29 "Hg28 mi
Weather by CustomWeather, © 2019

See weather overview